Time,TemperatureF,DewpointF,PressureIn,WindDirection,WindDirectionDegrees,WindSpeedMPH,WindSpeedGustMPH,Humidity,HourlyPrecipIn,Conditions,Clouds,dailyrainin,SoftwareType,DateUTC
2013-07-17 00:06:00,67.2,59.0,30.07,North,355,0.0,0.0,74,0.00,,,0.00,weatherlink.com 1.10,2013-07-16 22:06:00,
2013-07-17 00:21:00,66.8,59.0,30.07,North,355,0.0,0.0,75,0.00,,,0.00,weatherlink.com 1.10,2013-07-16 22:21:00,
2013-07-17 00:36:00,66.5,58.0,30.08,North,355,0.0,0.0,75,0.00,,,0.00,weatherlink.com 1.10,2013-07-16 22:36:00,
2013-07-17 00:51:00,66.4,59.0,30.07,North,355,0.0,0.0,76,0.00,,,0.00,weatherlink.com 1.10,2013-07-16 22:51:00,
2013-07-17 01:06:00,66.1,58.0,30.08,North,355,0.0,0.0,76,0.00,,,0.00,weatherlink.com 1.10,2013-07-16 23:06:00,
2013-07-17 01:21:00,65.6,58.0,30.08,North,355,0.0,0.0,77,0.00,,,0.00,weatherlink.com 1.10,2013-07-16 23:21:00,
2013-07-17 01:36:00,65.1,58.0,30.09,North,355,0.0,0.0,77,0.00,,,0.00,weatherlink.com 1.10,2013-07-16 23:36:00,
2013-07-17 01:51:00,64.8,57.0,30.09,North,355,0.0,0.0,75,0.00,,,0.00,weatherlink.com 1.10,2013-07-16 23:51:00,
2013-07-17 02:06:00,64.5,56.0,30.08,North,355,0.0,0.0,73,0.00,,,0.00,weatherlink.com 1.10,2013-07-17 00:06:00,
2013-07-17 02:21:00,64.2,55.0,30.08,North,355,0.0,0.0,71,0.00,,,0.00,weatherlink.com 1.10,2013-07-17 00:21:00,
2013-07-17 02:36:00,64.0,53.0,30.08,North,355,0.0,0.0,68,0.00,,,0.00,weatherlink.com 1.10,2013-07-17 00:36:00,
2013-07-17 02:51:00,63.5,53.0,30.08,North,355,0.0,0.0,69,0.00,,,0.00,weatherlink.com 1.10,2013-07-17 00:51:00,
2013-07-17 03:06:00,63.2,53.0,30.07,North,355,0.0,0.0,69,0.00,,,0.00,weatherlink.com 1.10,2013-07-17 01:06:00,
2013-07-17 03:21:00,63.2,53.0,30.07,North,355,0.0,0.0,69,0.00,,,0.00,weatherlink.com 1.10,2013-07-17 01:21:00,
2013-07-17 03:36:00,62.6,51.0,30.07,North,355,0.0,0.0,66,0.00,,,0.00,weatherlink.com 1.10,2013-07-17 01:36:00,
2013-07-17 03:51:00,62.6,51.0,30.07,North,355,0.0,0.0,66,0.00,,,0.00,weatherlink.com 1.10,2013-07-17 01:51:00,
2013-07-17 04:06:00,62.6,51.0,30.07,North,355,0.0,0.0,65,0.00,,,0.00,weatherlink.com 1.10,2013-07-17 02:06:00,
2013-07-17 04:21:00,62.3,50.0,30.07,North,355,0.0,0.0,65,0.00,,,0.00,weatherlink.com 1.10,2013-07-17 02:21:00,
2013-07-17 04:36:00,62.0,51.0,30.08,North,355,0.0,0.0,67,0.00,,,0.00,weatherlink.com 1.10,2013-07-17 02:36:00,
2013-07-17 04:51:00,61.7,51.0,30.08,North,355,0.0,0.0,69,0.00,,,0.00,weatherlink.com 1.10,2013-07-17 02:51:00,
2013-07-17 05:06:00,61.9,52.0,30.08,North,355,0.0,0.0,70,0.00,,,0.00,weatherlink.com 1.10,2013-07-17 03:06:00,
2013-07-17 05:21:00,61.8,52.0,30.08,North,355,0.0,0.0,71,0.00,,,0.00,weatherlink.com 1.10,2013-07-17 03:21:00,
2013-07-17 05:36:00,61.8,52.0,30.08,North,355,0.0,0.0,70,0.00,,,0.00,weatherlink.com 1.10,2013-07-17 03:36:00,
2013-07-17 05:51:00,61.9,52.0,30.08,North,355,0.0,0.0,69,0.00,,,0.00,weatherlink.com 1.10,2013-07-17 03:51:00,
2013-07-17 06:06:00,61.6,51.0,30.08,North,355,0.0,0.0,68,0.00,,,0.00,weatherlink.com 1.10,2013-07-17 04:06:00,
2013-07-17 06:21:00,61.2,51.0,30.09,North,355,0.0,0.0,69,0.00,,,0.00,weatherlink.com 1.10,2013-07-17 04:21:00,
2013-07-17 06:36:00,60.8,52.0,30.09,North,355,0.0,0.0,72,0.00,,,0.00,weatherlink.com 1.10,2013-07-17 04:36:00,
2013-07-17 06:51:00,60.2,53.0,30.09,North,355,0.0,0.0,76,0.00,,,0.00,weatherlink.com 1.10,2013-07-17 04:51:00,
2013-07-17 07:06:00,60.1,54.0,30.09,North,355,0.0,0.0,79,0.00,,,0.00,weatherlink.com 1.10,2013-07-17 05:06:00,
2013-07-17 07:21:00,60.5,54.0,30.09,North,355,0.0,0.0,80,0.00,,,0.00,weatherlink.com 1.10,2013-07-17 05:21:00,
2013-07-17 07:36:00,61.3,55.0,30.09,North,355,0.0,0.0,81,0.00,,,0.00,weatherlink.com 1.10,2013-07-17 05:36:00,
2013-07-17 07:51:00,62.2,57.0,30.09,North,355,0.0,0.0,84,0.00,,,0.00,weatherlink.com 1.10,2013-07-17 05:51:00,
2013-07-17 08:06:00,63.3,57.0,30.09,North,355,0.0,0.0,81,0.00,,,0.00,weatherlink.com 1.10,2013-07-17 06:06:00,
2013-07-17 08:21:00,64.9,59.0,30.10,North,355,0.0,0.0,80,0.00,,,0.00,weatherlink.com 1.10,2013-07-17 06:21:00,
2013-07-17 08:36:00,66.4,60.0,30.10,North,355,0.0,0.0,79,0.00,,,0.00,weatherlink.com 1.10,2013-07-17 06:36:00,
2013-07-17 08:51:00,68.0,61.0,30.10,North,355,0.0,0.0,77,0.00,,,0.00,weatherlink.com 1.10,2013-07-17 06:51:00,
2013-07-17 09:06:00,69.4,61.0,30.10,North,355,0.0,0.0,75,0.00,,,0.00,weatherlink.com 1.10,2013-07-17 07:06:00,
2013-07-17 09:21:00,70.8,61.0,30.10,North,355,0.0,0.0,71,0.00,,,0.00,weatherlink.com 1.10,2013-07-17 07:21:00,
2013-07-17 09:36:00,71.9,62.0,30.10,North,355,0.0,0.0,72,0.00,,,0.00,weatherlink.com 1.10,2013-07-17 07:36:00,
2013-07-17 09:51:00,72.8,62.0,30.10,North,355,0.0,0.0,68,0.00,,,0.00,weatherlink.com 1.10,2013-07-17 07:51:00,
2013-07-17 10:06:00,73.7,62.0,30.10,North,355,0.0,0.0,67,0.00,,,0.00,weatherlink.com 1.10,2013-07-17 08:06:00,
2013-07-17 10:21:00,74.6,62.0,30.09,North,355,0.0,0.0,64,0.00,,,0.00,weatherlink.com 1.10,2013-07-17 08:21:00,
2013-07-17 10:37:00,75.5,61.0,30.09,North,355,0.0,0.0,62,0.00,,,0.00,weatherlink.com 1.10,2013-07-17 08:37:00,
2013-07-17 10:52:00,75.3,62.0,30.09,North,355,0.0,0.0,63,0.00,,,0.00,weatherlink.com 1.10,2013-07-17 08:52:00,
2013-07-17 11:07:00,75.8,60.0,30.09,North,355,0.0,0.0,59,0.00,,,0.00,weatherlink.com 1.10,2013-07-17 09:07:00,
2013-07-17 11:22:00,77.1,61.0,30.09,North,355,0.0,0.0,57,0.00,,,0.00,weatherlink.com 1.10,2013-07-17 09:22:00,
2013-07-17 11:37:00,77.8,62.0,30.09,North,355,0.0,0.0,59,0.00,,,0.00,weatherlink.com 1.10,2013-07-17 09:37:00,
2013-07-17 11:52:00,78.5,62.0,30.09,North,355,0.0,0.0,58,0.00,,,0.00,weatherlink.com 1.10,2013-07-17 09:52:00,
2013-07-17 12:07:00,79.2,61.0,30.09,North,355,0.0,0.0,54,0.00,,,0.00,weatherlink.com 1.10,2013-07-17 10:07:00,
2013-07-17 12:22:00,80.1,63.0,30.08,North,355,0.0,0.0,56,0.00,,,0.00,weatherlink.com 1.10,2013-07-17 10:22:00,
2013-07-17 12:37:00,81.3,62.0,30.08,North,355,0.0,0.0,52,0.00,,,0.00,weatherlink.com 1.10,2013-07-17 10:37:00,
2013-07-17 12:52:00,81.5,60.0,30.08,North,355,0.0,0.0,49,0.00,,,0.00,weatherlink.com 1.10,2013-07-17 10:52:00,
2013-07-17 13:07:00,81.7,62.0,30.07,North,355,0.0,0.0,51,0.00,,,0.00,weatherlink.com 1.10,2013-07-17 11:07:00,
2013-07-17 13:22:00,82.7,63.0,30.07,North,355,0.0,1.0,51,0.00,,,0.00,weatherlink.com 1.10,2013-07-17 11:22:00,
2013-07-17 13:37:00,83.6,62.0,30.06,North,355,0.0,1.0,48,0.00,,,0.00,weatherlink.com 1.10,2013-07-17 11:37:00,
2013-07-17 13:52:00,84.5,61.0,30.05,North,355,0.0,1.0,46,0.00,,,0.00,weatherlink.com 1.10,2013-07-17 11:52:00,
2013-07-17 14:07:00,85.5,62.0,30.05,North,355,0.0,0.0,45,0.00,,,0.00,weatherlink.com 1.10,2013-07-17 12:07:00,
2013-07-17 14:22:00,86.6,62.0,30.05,NNW,334,0.0,1.0,44,0.00,,,0.00,weatherlink.com 1.10,2013-07-17 12:22:00,
2013-07-17 14:37:00,86.4,62.0,30.04,North,355,0.0,0.0,44,0.00,,,0.00,weatherlink.com 1.10,2013-07-17 12:37:00,
2013-07-17 14:52:00,86.4,62.0,30.04,North,355,0.0,0.0,44,0.00,,,0.00,weatherlink.com 1.10,2013-07-17 12:52:00,
2013-07-17 15:07:00,86.8,62.0,30.04,North,355,0.0,0.0,44,0.00,,,0.00,weatherlink.com 1.10,2013-07-17 13:07:00,
2013-07-17 15:22:00,87.2,61.0,30.03,North,355,0.0,0.0,41,0.00,,,0.00,weatherlink.com 1.10,2013-07-17 13:22:00,
2013-07-17 15:37:00,85.6,58.0,30.03,North,355,0.0,0.0,39,0.00,,,0.00,weatherlink.com 1.10,2013-07-17 13:37:00,
2013-07-17 15:52:00,83.3,60.0,30.03,SSW,197,0.0,0.0,45,0.00,,,0.00,weatherlink.com 1.10,2013-07-17 13:52:00,
2013-07-17 16:07:00,80.7,60.0,30.03,SSW,197,0.0,0.0,50,0.00,,,0.00,weatherlink.com 1.10,2013-07-17 14:07:00,
2013-07-17 16:22:00,77.8,65.0,30.03,SSW,197,0.0,0.0,65,0.00,,,0.00,weatherlink.com 1.10,2013-07-17 14:22:00,
2013-07-17 16:37:00,71.9,62.0,30.04,WNW,296,0.0,1.0,70,0.00,,,0.00,weatherlink.com 1.10,2013-07-17 14:37:00,
2013-07-17 16:52:00,68.9,61.0,30.03,WSW,242,0.0,0.0,75,0.00,,,0.00,weatherlink.com 1.10,2013-07-17 14:52:00,
2013-07-17 17:07:00,68.5,61.0,30.03,WSW,242,0.0,0.0,77,0.00,,,0.00,weatherlink.com 1.10,2013-07-17 15:07:00,
2013-07-17 17:22:00,68.3,62.0,30.05,SW,226,0.0,0.0,81,0.00,,,0.00,weatherlink.com 1.10,2013-07-17 15:22:00,
2013-07-17 17:37:00,67.4,60.0,30.08,South,178,0.0,0.0,78,0.00,,,0.00,weatherlink.com 1.10,2013-07-17 15:37:00,
2013-07-17 17:52:00,66.5,61.0,30.08,South,177,0.0,0.0,83,0.01,,,0.01,weatherlink.com 1.10,2013-07-17 15:52:00,
2013-07-17 18:07:00,65.7,62.0,30.07,South,177,0.0,0.0,87,0.02,,,0.02,weatherlink.com 1.10,2013-07-17 16:07:00,
2013-07-17 18:23:00,65.4,63.0,30.07,South,177,0.0,0.0,90,0.02,,,0.02,weatherlink.com 1.10,2013-07-17 16:23:00,
2013-07-17 18:38:00,65.5,63.0,30.07,South,177,0.0,0.0,92,0.02,,,0.02,weatherlink.com 1.10,2013-07-17 16:38:00,
2013-07-17 18:53:00,65.4,63.0,30.07,South,177,0.0,0.0,91,0.01,,,0.02,weatherlink.com 1.10,2013-07-17 16:53:00,
2013-07-17 19:08:00,65.4,63.0,30.07,South,177,0.0,0.0,92,0.00,,,0.02,weatherlink.com 1.10,2013-07-17 17:08:00,
2013-07-17 19:23:00,65.3,63.0,30.07,South,177,0.0,0.0,92,0.00,,,0.02,weatherlink.com 1.10,2013-07-17 17:23:00,
2013-07-17 19:38:00,65.0,63.0,30.09,South,177,0.0,0.0,92,0.02,,,0.03,weatherlink.com 1.10,2013-07-17 17:38:00,
2013-07-17 19:53:00,64.7,62.0,30.09,South,177,0.0,0.0,92,0.02,,,0.03,weatherlink.com 1.10,2013-07-17 17:53:00,
2013-07-17 20:08:00,64.6,63.0,30.09,South,177,0.0,0.0,93,0.02,,,0.04,weatherlink.com 1.10,2013-07-17 18:08:00,
2013-07-17 20:23:00,64.4,62.0,30.10,South,177,0.0,0.0,93,0.03,,,0.05,weatherlink.com 1.10,2013-07-17 18:23:00,
2013-07-17 20:38:00,63.9,62.0,30.10,South,177,0.0,0.0,92,0.02,,,0.05,weatherlink.com 1.10,2013-07-17 18:38:00,
2013-07-17 20:53:00,63.3,61.0,30.10,South,177,0.0,0.0,92,0.02,,,0.06,weatherlink.com 1.10,2013-07-17 18:53:00,
2013-07-17 21:08:00,63.1,61.0,30.11,South,177,0.0,0.0,93,0.02,,,0.06,weatherlink.com 1.10,2013-07-17 19:08:00,
2013-07-17 21:23:00,63.0,61.0,30.11,South,177,0.0,0.0,93,0.02,,,0.06,weatherlink.com 1.10,2013-07-17 19:23:00,
2013-07-17 21:38:00,62.5,61.0,30.11,South,177,0.0,0.0,93,0.02,,,0.06,weatherlink.com 1.10,2013-07-17 19:38:00,
2013-07-17 21:53:00,62.3,61.0,30.11,South,178,0.0,0.0,94,0.01,,,0.06,weatherlink.com 1.10,2013-07-17 19:53:00,
2013-07-17 22:08:00,62.2,61.0,30.11,South,177,0.0,0.0,94,0.01,,,0.06,weatherlink.com 1.10,2013-07-17 20:08:00,
2013-07-17 22:23:00,62.3,61.0,30.11,South,177,0.0,0.0,95,0.00,,,0.06,weatherlink.com 1.10,2013-07-17 20:23:00,
2013-07-17 22:38:00,62.2,61.0,30.12,South,177,0.0,0.0,95,0.00,,,0.06,weatherlink.com 1.10,2013-07-17 20:38:00,
2013-07-17 22:53:00,62.3,61.0,30.12,South,178,0.0,0.0,95,0.00,,,0.06,weatherlink.com 1.10,2013-07-17 20:53:00,
2013-07-17 23:08:00,62.4,61.0,30.11,South,177,0.0,0.0,95,0.00,,,0.06,weatherlink.com 1.10,2013-07-17 21:08:00,
2013-07-17 23:24:00,62.3,61.0,30.11,South,177,0.0,0.0,95,0.00,,,0.06,weatherlink.com 1.10,2013-07-17 21:24:00,
2013-07-17 23:38:00,62.2,61.0,30.10,South,178,0.0,0.0,95,0.00,,,0.06,weatherlink.com 1.10,2013-07-17 21:38:00,
2013-07-17 23:53:00,61.8,60.0,30.10,South,177,0.0,0.0,94,0.00,,,0.06,weatherlink.com 1.10,2013-07-17 21:53:00,